Location: Complexul Astronomic Baia Mare
(47.6577°N, 23.5639°E)
Time: 06:34:56
(UTC+03:00)

ISS - Pass Details

Date: 20 May 2017
Orbit: 401 x 408 km, 51.6° (Epoch: 25 June)

Event Time Altitude Azimuth Distance (km) Brightness Sun altitude
Exits shadow 03:10:42 12° 287° (WNW) 1,351 -1.3 -18.1°
Maximum altitude 03:13:31 39° 357° (N) 623 -2.5 -17.9°
Drops below altitude 10° 03:16:39 10° 68° (ENE) 1,468 -0.3 -17.7°
Sets 03:18:49 0° 77° (ENE) 2,326 0.7 -17.5°
